This is the latest recevied weather packets stored in our database for station/object WE1C. If no packets are shown the sender has not sent any weather packets the latest 10 day(s).
| Time | Temp. | Humidity | Pressure | Rain* | Wind** | Luminosity | Snow |
|---|---|---|---|---|---|---|---|
| 1777883293 | 5° C | 67% | 1039.7 hPa | 0 mm | - | 0 W/m² | - |
| 1777882989 | 5° C | 67% | 1039.7 hPa | 0 mm | - | 0 W/m² | - |
| 1777882686 | 5° C | 67% | 1039.7 hPa | 0 mm | - | 0 W/m² | - |
| 1777882382 | 5.56° C | 66% | 1039.8 hPa | 0 mm | - | 0 W/m² | - |
| 1777882079 | 5.56° C | 66% | 1039.5 hPa | 0 mm | - | 0 W/m² | - |
| 1777881775 | 6.11° C | 65% | 1039.8 hPa | 0 mm | - | 0 W/m² | - |
| 1777881473 | 6.11° C | 67% | 1039.6 hPa | 0 mm | - | 0 W/m² | - |
| 1777881170 | 6.11° C | 67% | 1039.8 hPa | 0 mm | - | 0 W/m² | - |
| 1777880867 | 6.11° C | 67% | 1039.7 hPa | 0 mm | - | 0 W/m² | - |
| 1777880565 | 6.11° C | 65% | 1039.5 hPa | 0 mm | - | 0 W/m² | - |
| 1777880263 | 6.11° C | 64% | 1039.4 hPa | 0 mm | - | 0 W/m² | - |
| 1777879961 | 6.11° C | 62% | 1039.4 hPa | 0 mm | - | 0 W/m² | - |
| 1777879659 | 6.67° C | 63% | 1039.5 hPa | 0 mm | - | 0 W/m² | - |
| 1777879355 | 6.67° C | 60% | 1039.5 hPa | 0 mm | - | 0 W/m² | - |
| 1777879052 | 6.67° C | 60% | 1039.5 hPa | 0 mm | - | 0 W/m² | - |
| 1777878750 | 6.11° C | 60% | 1039.5 hPa | 0 mm | - | 0 W/m² | - |
| 1777878447 | 6.67° C | 62% | 1039.4 hPa | 0 mm | - | 0 W/m² | - |
| 1777878143 | 6.67° C | 60% | 1039.3 hPa | 0 mm | - | 0 W/m² | - |
| 1777877840 | 6.67° C | 60% | 1039.4 hPa | 0 mm | - | 0 W/m² | - |
| 1777877537 | 6.67° C | 59% | 1039.4 hPa | 0 mm | - | 0 W/m² | - |
| 1777877233 | 6.67° C | 61% | 1039.3 hPa | 0 mm | - | 0 W/m² | - |
| 1777876931 | 6.67° C | 63% | 1039.4 hPa | 0 mm | - | 0 W/m² | - |
| 1777876628 | 6.67° C | 57% | 1039.4 hPa | 0 mm | - | 0 W/m² | - |
| 1777876326 | 6.67° C | 57% | 1039.5 hPa | 0 mm | - | 0 W/m² | - |
| 1777876022 | 6.67° C | 62% | 1039.6 hPa | 0 mm | - | 0 W/m² | - |
* Rain latest hour (hover to see other rain measurements)
** Current wind speed in m/s (hover to see current wind gust speed)